Weather Roundup
Issued by NWS

Home | Current Version | Previous Version | Text Only | Print | Product List | Glossary On
Versions: 1 2 3 4 5 6 7 8 9 10 11 12 13 14 15 16 17 18 19 20 21 22 23 24 25 26 27 28 29 30 31 32 33 34 35 36 37 38 39 40 41 42 43 44 45 46 47 48 49 50
000
NZUS93 KARX 040959
HRRWXR

CURRENT HOURLY OBSERVATIONS ACROSS
MUCH OF THE UPPER MISSISSIPPI VALLEY
NATIONAL WEATHER SERVICE LA CROSSE WI
500 AM CDT WED MAY 04 2016


...SOUTHEAST MINNESOTA...


CITY           SKY/WX    TMP DP  RH WIND       PRES   REMARKS
ROCHESTER      CLEAR     45  34  65 N18       29.88R
ROCHESTER/MAYO FAIR      46  32  58 N8        29.89R
WINONA         CLEAR     48  36  61 N5        29.87R
AUSTIN         CLEAR     45  34  65 N9        29.88R
ALBERT LEA     CLEAR     48  34  57 N15       29.89R
DODGE CENTER   PTCLDY    43  34  70 N8        29.89R
PRESTON        CLEAR     44  34  70 N13       29.86R
OWATONNA       CLEAR     46  30  53 N8        29.91R
FARIBAULT      CLEAR     46  32  57 N7        29.92R
$$

...ELSEWHERE IN MINNESOTA...


CITY           SKY/WX    TMP DP  RH WIND       PRES   REMARKS
MINNEAPOLIS    CLEAR     47  32  56 N5        29.93R
INTNL FALLS    CLEAR     36  30  79 NW7       29.97S WCI  30
DULUTH         CLEAR     40  31  70 N7        29.91R
RED WING       CLEAR     41  34  75 CALM      29.90S
REDWOOD FALLS  CLEAR     46  32  58 N8        29.97R
MANKATO        CLEAR     46  30  53 N9        29.93R
WORTHINGTON    CLEAR     43  34  70 N14       29.97R
FAIRMONT       CLEAR     46  30  53 N12       29.92R
$$

...SOUTHWEST WISCONSIN...


CITY           SKY/WX    TMP DP  RH WIND       PRES   REMARKS
LA CROSSE      PTCLDY    47  38  71 N12       29.84R
PRAIRIE DU CHI CLEAR     48  46  93 N13G22    29.79R
LONE ROCK      NOT AVBL
PLATTEVILLE    CLEAR     44  44  99 N9        29.75R
FORT MC COY    MOCLDY    44  41  88 N6        29.83R
MAUSTON-NEW LI CLOUDY    45  42  90 N6        29.79R
VIROQUA        CLOUDY    44  41  89 N15G24    29.81R
WIS DELLS      CLOUDY    44  41  89 N7        29.77R
$$

...ELSEWHERE IN WISCONSIN...


CITY           SKY/WX    TMP DP  RH WIND       PRES   REMARKS
MILWAUKEE      CLOUDY    44  39  82 N13       29.69R
MADISON        MOCLDY    45  43  93 N14       29.74R
GREEN BAY      LGT RAIN  42  36  79 N13       29.74R
EAU CLAIRE     NOT AVBL
BLACK RVR FLS  FAIR      43  37  80 N5        29.83R
MEDFORD        CLEAR     37  36  96 NW7       29.81S WCI  31
WAUSAU         PTCLDY    41  36  82 NW7       29.78R
WIS RAPIDS     CLEAR     42  35  76 N9        29.81R
MARSHFIELD     PTCLDY    39  35  86 NW9       29.80S WCI  33
RICE LAKE      CLEAR     40  32  72 W3        29.90R
$$

...NORTHEAST IOWA...


CITY           SKY/WX    TMP DP  RH WIND       PRES   REMARKS
WATERLOO       CLEAR     47  40  76 N14       29.81R
DUBUQUE        CLEAR     45  44  97 N9        29.76R
DECORAH        CLEAR     46  39  76 N9        29.81R
MASON CITY     CLEAR     42  34  73 N10       29.89R
CHARLES CITY   CLEAR     46  41  81 N10       29.84R
OELWEIN        CLEAR     46  43  87 N13       29.80R
$$

...ELSEWHERE IN IOWA...


CITY           SKY/WX    TMP DP  RH WIND       PRES   REMARKS
DES MOINES     PTCLDY    53  34  48 N9        29.83R
IOWA CITY      CLEAR     49  46  90 N8        29.77R
FORT DODGE     CLEAR     48  32  53 N8        29.88R
MARSHALLTOWN   CLEAR     48  40  73 N14       29.81R
CEDAR RAPIDS   CLEAR     48  46  93 N9        29.76R
$$

...NORTHERN ILLINOIS...


CITY           SKY/WX    TMP DP  RH WIND       PRES   REMARKS
CHICAGO-OHARE  LGT RAIN  50  47  89 N7        29.65R
CHICAGO-MIDWAY LGT RAIN  49  46  90 N16       29.64R FOG
MOLINE         FOG       45  43  93 W3        29.72R VSB 1/2
ROCKFORD       CLEAR     46  43  89 N9        29.72R
PEORIA         CLEAR     48  46  93 CALM      29.68S
$$

NOTE: "FAIR" INDICATES FEW OR NO CLOUDS BELOW 12,000 FEET WITH NO
SIGNIFICANT WEATHER AND/OR OBSTRUCTIONS TO VISIBILITY. WIND
SPEEDS ARE IN MILES-PER-HOUR.




USA.gov is the U.S. government's official web portal to all federal, state and local government web resources and services.